Location: Vancouver
(49.2500°N, 123.1330°W)
Time: 05:29:48
(UTC-07:00)

BREEZE-M DEB (TANK) - Visible Passes

Search period start: 06 May 2015 00:00
Search period end: 16 May 2015 00:00
Orbit: 290 x 13531 km, 49.6° (Epoch: 04 May)

Date Brightness Start Highest point End Pass type
(mag) Time Alt. Az. Time Alt. Az. Time Alt. Az.
06 May 7.6 03:04:05 16° SSW 04:17:49 60° SE 04:37:17 10° ENE visible
07 May 8.4 00:15:18 13° SSE 01:04:57 28° ESE 01:37:18 10° ENE visible
07 May 7.0 04:30:29 10° SW 05:51:15 77° SSE 06:05:07 10° ENE visible
08 May 8.2 01:40:27 19° S 02:42:09 46° SE 03:08:07 10° ENE visible
08 May 8.7 23:08:51 10° ESE 23:27:23 14° ESE 23:59:57 10° ENE visible
09 May 7.6 03:05:17 18° SSW 04:17:33 64° SE 04:36:35 10° ENE visible
10 May 8.4 00:15:43 16° SSE 01:04:38 32° ESE 01:37:16 10° ENE visible
10 May 7.0 04:29:49 10° SW 05:50:38 80° SSE 06:04:09 10° ENE visible
11 May 8.1 01:39:57 22° S 02:41:35 50° SE 03:07:12 10° ENE visible
11 May 8.6 22:53:41 10° SE 23:26:28 18° ESE 00:02:11 10° ENE visible
12 May 7.5 03:03:50 19° SSW 04:16:39 68° SSE 04:35:17 10° ENE visible
13 May 8.4 00:13:28 19° SSE 01:03:39 36° SE 01:36:23 10° ENE visible
13 May 6.9 04:28:53 10° SW 05:49:26 83° SSE 06:02:37 10° ENE visible
14 May 8.0 01:36:40 23° S 02:40:23 55° SE 03:05:39 10° ENE visible
14 May 8.5 22:45:41 12° SE 23:24:53 22° ESE 00:02:25 10° ENE visible
15 May 7.4 02:59:27 18° SSW 04:15:08 72° SSE 04:33:25 10° ENE visible
